GAOFEN 9 05

导读

高分九号05星(GAOFEN 9 05)是中国于2020年8月23日在酒泉卫星发射中心,通过长征二号丁运载火箭成功发射的光学遥感卫星。该卫星地面像元分辨率最高可达亚米级,主要服务于国土普查、城市规划、土地确权、路网设计、农作物估产和防灾减灾等领域,能够为“一带一路”建设等国家重大战略实施提供可靠的空间信息保障,进一步完善了我国高分辨率对地观测体系。

基本信息
目录编号:
46232
目录名称:
GAOFEN 9 05
国际标识:
2020-058A
轨道中心:
EARTH
卫星名称:
GAOFEN 9 05
卫星全名:
--
卫星状态:
在轨 (已飞行2119 天)
发射日期:
2020-08-23 UTC
国别 :
中国 (CN)
星等 :
--
轨道信息
数据来源 国际轨道数据
星历时间: 2026-06-12T12:14:00+0800
15小时前
查看轨道信息
半长轴: 6848.256km
偏心率: 0.0010086
轨道倾角: 97.210°
近地点辐角 110.926°
升交点赤经 203.595°
平近点角 249.306°
近地点: 463.211km
远地点: 477.027km
周期: 94.000分钟
每日圈数: 15.319086
详细信息
使用方式:
暂无
2D轨道图
3D轨道图
轨道高度分析图
轨道倾角分析图
轨道综合分析图
查看轨道综合分析图